Back to catalog

OPS 9442 (DSCS 2-12) DEB

AliveMEO
NORAD 59991·DEBRIS·🇺🇸 United States

Launched Dec 14, 1978 from Cape Canaveral Space Force Station

Loading…

Next Passes (next 24 hours)

TLE

FreshSource: Space-Track

Epoch: Sep 5, 2026, 15:15 UTC

1 59991U 78113G   26248.63564263 -.00000088  00000-0  00000+0 0  9996
2 59991   7.9497 302.7924 0155327 146.2261 325.5174  0.98452716 44987

Track OPS 9442 (DSCS 2-12) DEB in real time with AllMySat

Download on the App Store